Welcome to the New NWS' Forecast!
Most changes are behind the scenes, but click here for differences you might notice.

Regional Weather Roundup (RWR)

Issued by Charleston, WV (RLX)

                            
785 
ASUS41 KRLX 201210
RWRRLX
Regional Weather Roundup
National Weather Service Charleston WV
800 AM EDT MON AUG 20 2018

Note: "fair" indicates few or no clouds below 12,000 feet with no
significant weather and/or obstructions to visibility.

WVZ003-201300-
Northern Panhandle of West Virginia
  
CITY           SKY/WX    TMP DP  RH WIND       PRES   REMARKS
WHEELING       FAIR      63  61  93 NE6       30.06R                  
$$

WVZ009-201300-
Northwest West Virginia
  
CITY           SKY/WX    TMP DP  RH WIND       PRES   REMARKS
PARKERSBURG    FOG       64  63  96 CALM      30.07R VSB<1/4          
$$

WVZ006-201300-
Western West Virginia
  
CITY           SKY/WX    TMP DP  RH WIND       PRES   REMARKS
HUNTINGTON     PTSUNNY   68  66  93 E3        30.00S FOG              
$$

WVZ015-201300-
West Central West Virginia
  
CITY           SKY/WX    TMP DP  RH WIND       PRES   REMARKS
CHARLESTON     FOG       69  69 100 CALM      30.03R VSB 1/2          
$$

WVZ022-031-201300-
North Central West Virginia
  
CITY           SKY/WX    TMP DP  RH WIND       PRES   REMARKS
MORGANTOWN     FAIR      70  64  81 CALM      30.07R                  
CLARKSBURG     FAIR      70  63  78 CALM      30.04R                  
BUCKHANNON     FAIR      66  66 100 CALM      30.06R                  
$$

WVZ025-035-042-045-201300-
Southern West Virginia
  
CITY           SKY/WX    TMP DP  RH WIND       PRES   REMARKS
BECKLEY        FAIR      68  65  90 SE7       30.11R                  
LOGAN          CLOUDY    70  70 100 CALM      30.05R                  
PINEVILLE      CLOUDY    69  67  95 MISG      30.13R                  
BLUEFIELD      CLOUDY    66  66 100 CALM      30.14R                  
LEWISBURG      CLOUDY    69  66  92 CALM      30.13R                  
$$

WVZ047-201300-
Northern Mountains of West Virginia
  
CITY           SKY/WX    TMP DP  RH WIND       PRES   REMARKS
ELKINS         FOG       64  63  96 CALM      30.10R VSB 1/4          
$$

WVZ052-201300-
Eastern Panhandle of West Virginia
  
CITY           SKY/WX    TMP DP  RH WIND       PRES   REMARKS
MARTINSBURG    CLOUDY    68  66  93 E6        30.07F                  
PETERSBURG     CLOUDY    68  66  94 CALM      30.08F FOG              
$$

Southeast Ohio/Northeast Kentucky
  
CITY           SKY/WX    TMP DP  RH WIND       PRES   REMARKS
ATHENS         FAIR      63  63 100 CALM      30.02R                  
ASHLAND        PTSUNNY   68  67  96 CALM      30.01R FOG              
$$